Regional Weather Roundup
Issued by NWS

Home | Current Version | Previous Version | Text Only | Print | Product List | Glossary Off
Versions: 1 2 3 4 5 6 7 8 9 10 11 12 13 14 15 16 17 18 19 20 21 22 23 24 25 26 27 28 29 30 31 32 33 34 35 36 37 38 39 40 41 42 43 44 45 46 47 48 49 50

000
ASUS43 KFSD 310110
RWRSD

WEATHER ROUNDUP FOR SOUTH DAKOTA
NATIONAL WEATHER SERVICE SIOUX FALLS SD
800 PM CDT SAT JUL 30 2016

NOTE: "FAIR" INDICATES FEW OR NO CLOUDS BELOW 12,000 FEET WITH NO
SIGNIFICANT WEATHER AND/OR OBSTRUCTIONS TO VISIBILITY.


SDZ001>005-009-010-012>017-310200-
NORTHWEST AND NORTH CENTRAL SOUTH DAKOTA

CITY           SKY/WX    TMP DP  RH WIND       PRES   REMARKS
BUFFALO          N/A     90  52  27 SE14      29.73R
FAITH            N/A     87  55  33 SE15G23   29.78F
MOBRIDGE       CLOUDY    68  61  78 E12G26    29.80S
$$

SDZ012>016-024>037-041>051-057-063-072>074-310200-
SOUTHWEST AND SOUTH CENTRAL SOUTH DAKOTA

CITY           SKY/WX    TMP DP  RH WIND       PRES   REMARKS
RAPID CTY ARPT CLOUDY    81  61  50 SE15      29.78S
PIERRE         SUNNY     87  61  41 SE23      29.78S
CUSTER         SUNNY     80  49  33 SE8       29.95F
ELLSWORTH AFB  CLOUDY    85  52  31 SE15G22   29.79
PHILIP         CLOUDY    80  65  59 S23G31    29.78S
PINE RIDGE     CLOUDY    87  59  38 S15       29.82F
WINNER         FAIR      81  66  60 SE9       29.86R
$$

SDZ004>011-016>023-039-040-310200-
NORTHEAST SOUTH DAKOTA

CITY           SKY/WX    TMP DP  RH WIND       PRES   REMARKS
ABERDEEN       CLEAR     77  62  59 SE9       29.86F
WATERTOWN      CLEAR     76  59  55 S10       29.93F
BROOKINGS      CLEAR     75  59  57 SE10      29.94F
SISSETON         N/A     76  59  55 SE10      29.91F
$$

SDZ017-020-022-023-036>040-048>070-310200-
SOUTHEAST SOUTH DAKOTA

CITY           SKY/WX    TMP DP  RH WIND       PRES   REMARKS
SIOUX FALLS    PTCLDY    77  58  51 SE10      29.94S
HURON          CLEAR     80  61  52 S13G22    29.86F
CHAMBERLAIN    CLEAR     83  69  62 SE16      29.86R
MITCHELL       CLEAR     80  63  55 SE10      29.89F
YANKTON        CLEAR     79  61  53 SE13      29.90F
$$

ABBREVIATIONS USED IN REMARKS
   TC - TEMPERATURE IN CELSIUS
  WCI - WIND CHILL INDEX
   HX - HEAT INDEX
  VSB - VISIBILITY





USA.gov is the U.S. government's official web portal to all federal, state and local government web resources and services.